www.pogodaiklimat.ru

Погода и климат >> Архив погоды >> Украина >> Веселый Подол


ПОГОДА в Веселом Подоле

  • Прогноз погоды в Веселом Подоле
  • Монитор погоды в Веселом Подоле

АРХИВ ПОГОДЫ в Веселом Подоле

Время (UTC), дата Ветер
(напр.,м/с)
 
Видим.   Явления Облачность Т
(С)
Тd
(С)
f
(%)
Тe
(С)
Тes
(С)
Комфортность P
(гПа)
Po
(гПа)
Тmin
(С)
Tmax
(С)
R
(мм)
R24
(мм)
S
(см)
21 9.09 В 1 10 км ясно +15.7 +10.0 69 +16 +16 1023.0 1011.5
00 10.09 В 1 10 км ясно +14.4 +6.5 59 +15 +15 1024.0 1012.4
03 10.09 СВ 1 10 км ясно +11.2 +5.5 68 +11 +11 1024.0 1012.3
06 10.09 ЮВ 1 10 км 1/0
[Ci fib]
+18.5 +9.3 55 +20 +24 1025.0 1013.6 +9.9
09 10.09 В 5 20 км 3/0
[Ci fib]
+24.7 +5.0 28 +24 +28 комфорт 1024.0 1012.8
12 10.09 В 4 20 км 1/0
[Ci fib]
+26.3 +4.1 24 +25 +30 комфорт 1024.0 1012.9
15 10.09 В 3 20 км 3/0
[Ci fib]
+25.8 +4.8 26 +25 +25 комфорт 1023.0 1011.9
18 10.09 В 1 10 км ясно +18.9 +7.9 49 +21 +21 комфорт 1025.0 1013.6 +27.5
21 10.09 СВ 1 10 км ясно +14.1 +6.9 62 +15 +15 1026.0 1014.4
00 11.09 СВ 1 10 км ясно +11.9 +6.4 69 +12 +12 1026.0 1014.3
03 11.09 СВ 1 10 км 3/0
[Ci fib]
+9.8 +4.8 71 +9 +9 1028.0 1016.2
06 11.09 В 2 10 км 4/0
[Ci fib]
+17.0 +4.7 44 +17 +20 1028.0 1016.5 +9.5
09 11.09 В 5 20 км 6/0
[Ci fib]
+25.4 +2.1 22 +24 +26 комфорт 1028.0 1016.8
12 11.09 С 2 20 км 5/0
[Ci fib]
+26.9 +2.7 21 +25 +28 комфорт 1027.0 1015.9
15 11.09 СВ 1 20 км 3/0
[Ci fib]
+26.5 +6.5 28 +26 +27 жарко 1026.0 1014.9
18 11.09 СВ 1 10 км 1/0
[Ci fib]
+19.6 +6.7 43 +21 +21 комфорт 1027.0 1015.6 +28.6
21 11.09 СВ 1 10 км ясно +15.0 +8.2 64 +16 +16 1028.0 1016.4
00 12.09 СВ 1 10 км ясно +12.4 +8.1 75 +12 +12 1028.0 1016.3
03 12.09 С 2 10 км 1/0
[Ci fib]
+10.3 +4.9 69 +9 +9 1028.0 1016.2
06 12.09 СВ 1 10 км 3/0
[Ci fib]
+14.8 +6.4 57 +15 +18 1029.0 1017.4 +10.3
09 12.09 В 1 20 км 4/0
[Ci fib]
+26.3 +6.8 29 +26 +34 жарко 1028.0 1016.8
12 12.09 В 3 20 км 5/3 600 м
[Cu hum Ci fib]
+27.6 +5.2 24 +27 +29 жарко 1027.0 1015.9
15 12.09 СЗ 1 20 км 8/5 1000 м
[Sc Ci fib]
+27.4 +7.8 29 +27 +27 жарко 1026.0 1014.9
18 12.09 ЮВ 1 10 км ясно +18.9 +7.3 47 +21 +21 комфорт 1026.0 1014.6 +28.3
21 12.09 Ю 1 10 км 3/0
[Ci fib]
+14.4 +9.6 73 +15 +15 1026.0 1014.4
00 13.09 Ю 1 10 км ясно +11.8 +7.3 74 +12 +12 1026.0 1014.3
03 13.09 В 2 10 км 8/3 1000 м
[Sc Ci fib]
+9.8 +7.2 84 +8 +8 1026.0 1014.2
06 13.09 З 1 10 км 4/0
[Ci fib]
+16.9 +8.3 57 +18 +21 1026.0 1014.5 +9.3
09 13.09 ЮЗ 1 10 км 3/0
[Ci fib]
+27.0 +5.3 25 +26 +34 жарко 1024.0 1012.9
12 13.09 ЮЗ 3 10 км 1/1 600 м
[Cu hum]
+28.8 +4.3 21 +27 +33 жарко 1022.0 1011.0
15 13.09 ЮЗ 3 10 км 4/0
[Ci fib]
+27.9 +6.0 25 +27 +27 жарко 1021.0 1010.0
18 13.09 Ю 2 10 км 4/3 1000 м
[Sc Ci fib]
+22.6 +5.5 33 +23 +23 комфорт 1021.0 1009.8 +30.2
21 13.09 Ю 2 10 км 6/6 1000 м
[Sc]
+15.8 +8.3 61 +16 +16 1021.0 1009.5
00 14.09 СЗ 1 10 км ясно +16.0 +8.5 61 +17 +17 1021.0 1009.5
03 14.09 ЮЗ 1 10 км 3/3 1000 м
[Sc]
+13.6 +5.2 57 +14 +14 1020.0 1008.4
06 14.09 ЮЗ 3 10 км 8/4 600 м
[Sc Ac trans Ci fib]
+16.2 +8.7 61 +16 +16 1021.0 1009.5 +13.4
09 14.09 СЗ 5 10 км 9/9 600 м
[Cu Sc]
+20.7 +10.5 52 +22 +22 комфорт 1021.0 1009.7
12 14.09 СЗ 7 10 км 9/9 600 м
[Cu Sc]
+20.1 +10.0 52 +21 +21 комфорт 1021.0 1009.7
15 14.09 СЗ 8 10 км 4/0
[Ci fib]
+20.4 +0.8 27 +20 +20 1021.0 1009.7
18 14.09 СЗ 4 10 км 3/0
[Ci fib]
+16.1 +1.4 37 +16 +16 1023.0 1011.5 +22.6
21 14.09 СЗ 3 10 км ясно +12.6 +2.2 49 +11 +11 1024.0 1012.3
00 15.09 СЗ 1 10 км ясно +10.9 +3.7 61 +11 +11 1025.0 1013.3
03 15.09 СЗ 1 10 км 3/0
[Ci fib]
+6.1 +1.9 74 +5 +5 1024.9 1012.9
06 15.09 СЗ 2 10 км 3/1 1000 м
[Sc Ci fib]
+12.2 +3.4 55 +12 +14 1025.0 1013.3 +5.9
09 15.09 З 6 20 км 8/8 600 м
[Sc diur, vesp]
+19.4 +3.7 35 +19 +20 1024.1 1012.7
12 15.09 З 5 20 км 9/9 1000 м
[Sc Ci fib]
+20.4 +1.3 28 +21 +21 комфорт 1022.0 1010.7
15 15.09 ЮЗ 3 20 км 8/0
[Ci fib]
+20.1 +3.3 33 +21 +21 комфорт 1020.0 1008.7
18 15.09 Ю 2 10 км 6/3 1000 м
[Sc Ci fib]
+15.5 +5.1 50 +16 +16 1019.0 1007.5 +22.0
21 15.09 ЮЗ 2 10 км 3/0
[Ci fib]
+13.3 +6.4 63 +13 +13 1018.0 1006.4
00 16.09 ЮЗ 1 10 км ясно +11.1 +7.0 76 +11 +11 1017.0 1005.4
03 16.09 Ю 3 10 км 6/0
[Ci fib]
+12.0 +8.3 78 +10 +10 1014.0 1002.4
06 16.09 ЮЗ 4 10 км 3/0
[Ac trans Ci fib]
+16.7 +5.6 48 +16 +18 1013.0 1001.6 +10.7
09 16.09 ЮЗ 5 10 км 6/0
[Cc]
+21.2 +5.5 36 +22 +24 комфорт 1011.0 999.8
12 16.09 ЮЗ 9 20 км 4/0
[Ac trans Ci fib]
+25.0 +6.7 31 +25 +25 комфорт 1009.0 998.0
15 16.09 С 9 10 км 9/9 1000 м
[Sc]
+24.3 +7.8 35 +25 +25 комфорт 1008.0 997.0
18 16.09 З 5 10 км 8/3 600 м
[Sc Ac trans]
+20.4 +6.7 41 +21 +21 комфорт 1009.0 997.8 +25.9

 

Местоположение метеостанции Веселый Подол (Полтавская область, Украина): широта 49.62 долгота 33.27 высота над уровнем моря 96 м.

В архиве по умолчанию представлена погода в Веселом Подоле за последнюю неделю. Архивные данные за месяц целиком и за предыдущие месяцы, начиная с января 2011 года, Вы можете получить, выбрав интересующий диапазон дат из раскрывающегося списка и нажав кнопку "Ввод!".


*Определитесь, кто Вы:
робот инопланетянин человек

Внимание! Время в таблицах - всемирное. Для получения местного времени необходимо прибавить поправку, которая равна 2 ч.

Смотрите также архив погоды в соседних городах и на ближайших метеорологических станциях:

Погода в Лубнах (Полтавская область, Украина) (46 км)
Погода в Светловодске (Кировоградская область, Украина) (63 км)
Погода в Чигирине (Черкасская область, Украина) (74 км)
Погода в Кобеляках (Полтавская область, Украина) (85 км)
Погода в Золотоноше (Черкасская область, Украина) (90 км)
Погода в Черкассах (Черкасская область, Украина) (91 км)
Погода в Полтаве (Полтавская область, Украина) (92 км)
Погода в Гадяче (Полтавская область, Украина) (98 км)
Погода в Знаменке (Кировоградская область, Украина) (109 км)
Погода в Прилуках (Черниговская область, Украина) (124 км)

Пояснения к столбцам:

Ветер - указаны скорость ветра в м/с - средняя за 10 мин, порывы в срок и между сроками (в фигурных скобках) и направление, откуда дует ветер: С - северный, СВ - северо-восточный, В - восточный, ЮВ - юго-восточный, Ю - южный, ЮЗ - юго-западный, З - западный, СЗ - северо-западный.
Видимость - горизонтальная дальность видимости в метрах или километрах. При видимости от 1 до 10 км при отсутствии осадков обычно наблюдается дымка, при ухудшении видимости до 1 км и менее - туман. В сухую погоду видимость может ухудшаться дымом, пылью или мглою.
Явления - указаны атмосферные явления, наблюдавшиеся в срок или в последний час перед сроком; фигурными скобками обозначены явления, наблюдавшиеся между сроками (за 1-3 часа до срока); квадратными скобками обозначены град или гололедные отложения с указанием их диаметра в мм.
Облачность - указаны через наклонную черту общая и нижняя облачность в баллах и высота нижней границы облаков в метрах; квадратными скобками обозначены формы облаков: Ci - перистые, Cs - перисто-слоистые, Cc - перисто-кучевые, Ac - высококучевые, As - высокослоистые, Sc - слоисто-кучевые, Ns - слоисто-дождевые, Cu - кучевые, Cb - кучево-дождевые. Подробнее классификацию облаков см. в Атласе облаков (PDF).
T - Температура воздуха - температура, измеренная на высоте 2 м над землей.
Td - Температура точки росы - температура, при понижении до которой содержащийся в воздухе водяной пар достигнет насыщения.
f - Относительная влажность воздуха - влажноcть воздуха, измеренная на высоте 2 м над землей.
Te - Эффективная температура - температура, которую ощущает одетый по сезону человек в тени. Характеристика душности погоды. При расчете учитывается влияние влажности воздуха и скорости ветра на теплоощущения человека.
Tes - Эффективная температура на солнце - температура, которую ощущает человек, с поправкой на солнечный нагрев. Характеристика знойности погоды. Зависит от высоты солнца над горизонтом, облачности и скорости ветра. Ночью, в пасмурную погоду, а также при ветре 12 м/с и более поправка равна нулю.
P - Атмосферное давление - приведенное к уровню моря атмосферное давление.
Po - Атмосферное давление - измеренное на уровне метеостанции атмосферное давление.
Tmin - Минимальная температура - минимум температуры воздуха на высоте 2 м над землей.
Tmax - Максимальная температура - максимум температуры воздуха на высоте 2 м над землей.
R - Количество осадков - Количество выпавших осадков за период времени, мм. При наведении курсора мыши на число - период времени, за который выпало указанное количество осадков.
R24 - Количество осадков - Количество выпавших осадков за 24 часа, мм.
S - Снежный покров - Высота снежного покрова, см. При наведении курсора мыши на число - состояние снежного покрова и степень покрытия местности в баллах.